Meath Environmental Platform

Observations for Trim Market St

Time AQI Temp °C Hum % Pres Pa CO μg/m³ H₂S μg/m³ NO μg/m³ NO₂ μg/m³ O₃ μg/m³ SO₂ μg/m³ PM1 μg/m³ PM2.5 μg/m³ PM10 μg/m³
Wednesday 12 August 2026
01:05 2 20.6 58 57,887 0 0 1.2 15.64 62.96 0 1.43 3.12 4.04
01:04 2 20.7 58 57,887 0 0 1.2 17.19 63.65 0 1.43 4.12 5.43
01:03 2 20.7 58 57,887 0 0 1.2 28.79 54.26 0 2.14 4.13 5.43
01:02 2 20.7 58 57,885 0 0 1.21 18.92 56.21 0 0.71 2.62 3.33
01:01 2 20.7 58 57,887 0 0 1.2 14.95 64.67 0 1.43 3.63 5.43
01:00 2 20.7 58 57,887 0 0 1.21 28.81 54.55 0 0.71 3.13 4.03
00:59 2 20.7 58 57,889 0 0 1.21 19.48 62.46 0 1.43 3.64 4.72
00:58 2 20.7 58 57,889 0 0 1.22 17.96 57.75 0 0.71 3.64 5.43
00:57 2 20.8 58 57,889 0 0 1.22 17.95 63.36 0 0.71 3.14 4.02
00:56 2 20.8 58 57,891 0 0 1.22 15.6 63.45 0 2.14 3.64 4.72
00:54 2 20.8 57 57,887 0 0 1.22 16.84 58.94 0 0.71 3.14 4.02
00:53 2 20.8 57 57,887 0 0 1.22 32.79 51.7 0 1.43 3.14 4.02
00:52 2 20.8 57 57,885 0 0 1.22 19.16 58.99 0 0.71 3.15 4.02
00:51 2 20.8 57 57,889 0 0 1.21 12.65 62 0 0.71 2.65 3.31
00:50 2 20.8 57 57,885 0 0 1.21 23.54 56.34 0 1.43 3.15 4.72
00:49 2 20.8 57 57,883 0 0 1.21 24.41 60.27 0 0.71 2.65 3.31
00:47 2 20.8 57 57,873 0 0 1.22 19.98 61.52 0 0.71 3.16 4.71
00:45 2 20.9 57 57,864 0 0 1.22 16.97 61.68 0 0.71 2.67 3.3
00:42 2 20.9 57 57,855 0 0 1.21 19.92 57.94 0 1.43 3.18 5.41
00:41 2 20.9 56 57,856 0 0 1.21 16.65 62.65 0 2.14 3.19 3.99